This is the latest recevied weather packets stored in our database for station/object SQ5AAG-2. If no packets are shown the sender has not sent any weather packets the latest 1 day(s).
| Time | Temp. | Humidity | Pressure | Rain* | Wind** | Luminosity | Snow |
|---|---|---|---|---|---|---|---|
| 1778096741 | 18.89° C | 57% | 991.2 hPa | 0 mm | - | - | - |
| 1778095840 | 19.44° C | 56% | 991.1 hPa | 0 mm | - | - | - |
| 1778094639 | 19.44° C | 55% | 991.2 hPa | 0 mm | - | - | - |
| 1778093738 | 19.44° C | 55% | 991.1 hPa | 0 mm | - | - | - |
| 1778092537 | 20° C | 54% | 990.7 hPa | 0 mm | - | - | - |
| 1778091337 | 21.11° C | 51% | 990.6 hPa | 0 mm | - | - | - |
| 1778090435 | 22.22° C | 49% | 990.7 hPa | 0 mm | - | - | - |
| 1778089534 | 22.78° C | 47% | 990.5 hPa | 0 mm | - | - | - |
| 1778089234 | 23.33° C | 46% | 990.5 hPa | 0 mm | - | - | - |
| 1778088420 | 26.11° C | 42% | 990.5 hPa | 0 mm | - | - | - |
| 1778087432 | 25° C | 43% | 990.3 hPa | 0 mm | - | - | - |
| 1778086531 | 23.89° C | 45% | 990.3 hPa | 0 mm | - | - | - |
| 1778085933 | 23.89° C | 44% | 990.3 hPa | 0 mm | - | - | - |
| 1778085330 | 24.44° C | 43% | 990.1 hPa | 0 mm | - | - | - |
| 1778084429 | 24.44° C | 42% | 990.1 hPa | 0 mm | - | - | - |
| 1778083528 | 27.22° C | 38% | 990.1 hPa | 0 mm | - | - | - |
| 1778083228 | 29.44° C | 37% | 990.2 hPa | 0 mm | - | - | - |
| 1778082929 | 29.44° C | 37% | 990 hPa | 0 mm | - | - | - |
| 1778082327 | 26.11° C | 40% | 990.3 hPa | 0 mm | - | - | - |
| 1778080525 | 24.44° C | 43% | 990.4 hPa | 0 mm | - | - | - |
| 1778079624 | 24.44° C | 42% | 990.4 hPa | 0 mm | - | - | - |
| 1778079324 | 25° C | 42% | 990.5 hPa | 0 mm | - | - | - |
| 1778078423 | 25.56° C | 41% | 990.4 hPa | 0 mm | - | - | - |
| 1778078124 | 25.56° C | 41% | 990.3 hPa | 0 mm | - | - | - |
| 1778077522 | 25° C | 41% | 990.1 hPa | 0 mm | - | - | - |
* Rain latest hour (hover to see other rain measurements)
** Current wind speed in m/s (hover to see current wind gust speed)